THY1SZ EDDB-LTFM

Flight info

Callsign THY1SZ
Flight time N/A
Altitude 41000
Route ARSAP4B ARSAP Y210 OLUMA T710 VAGON DCT KELEL DCT EXIDA DCT KEKED DCT TISAD DCT RONBU DCT BUVAK DCT RIXEN
Aircraft A359/H-SDE2E3GHIJ3J4J5LM1ORWXY/LB1D1

Departure

Time N/A
Airport Berlin Brandenburg Airport (EDDB)

Arrival

Time 2026-02-20 08:14
Airport İstanbul Airport (LTFM)
Time Latitude Longitude Altitude Speed Heading
2026-02-20 06:28 50.20482 18.85547 39210 ft 512 kts 138°
2026-02-20 06:28 50.17920 18.89445 39203 ft 512 kts 138°
2026-02-20 06:28 50.12814 18.97192 39202 ft 512 kts 138°
2026-02-20 06:29 50.07708 19.04919 39195 ft 512 kts 138°
2026-02-20 06:29 50.02589 19.12640 39183 ft 512 kts 138°
2026-02-20 06:30 49.97466 19.20344 39200 ft 512 kts 139°
2026-02-20 06:30 49.92366 19.27992 39182 ft 508 kts 139°
2026-02-20 06:31 49.87275 19.35598 39200 ft 508 kts 139°
2026-02-20 06:31 49.82176 19.43194 39192 ft 508 kts 139°
2026-02-20 06:32 49.77110 19.50717 39177 ft 509 kts 139°
2026-02-20 06:32 49.71994 19.58289 39175 ft 509 kts 139°
2026-02-20 06:33 49.61536 19.73700 39162 ft 509 kts 139°
2026-02-20 06:34 49.56405 19.81229 39150 ft 509 kts 139°
2026-02-20 06:34 49.51278 19.88727 39130 ft 508 kts 140°
2026-02-20 06:35 49.46142 19.96214 39120 ft 508 kts 140°
2026-02-20 06:35 49.41038 20.03635 39113 ft 508 kts 140°
2026-02-20 06:36 49.35898 20.11085 39101 ft 508 kts 140°
2026-02-20 06:36 49.30752 20.18517 39092 ft 507 kts 140°
2026-02-20 06:37 49.25612 20.25927 39086 ft 507 kts 140°
2026-02-20 06:37 49.20481 20.33300 39085 ft 506 kts 140°
2026-02-20 06:38 49.15348 20.40651 39082 ft 505 kts 141°
2026-02-20 06:38 49.10215 20.47985 39082 ft 505 kts 141°
2026-02-20 06:39 49.05081 20.55298 39082 ft 504 kts 141°
2026-02-20 06:39 48.99954 20.62580 39071 ft 503 kts 141°
2026-02-20 06:40 48.94821 20.69845 39073 ft 503 kts 141°
2026-02-20 06:40 48.91435 20.74628 39080 ft 503 kts 141°
2026-02-20 06:42 48.74997 20.97713 39074 ft 502 kts 141°
2026-02-20 06:42 48.69862 21.04881 39072 ft 502 kts 141°
2026-02-20 06:43 48.64723 21.12041 39073 ft 502 kts 141°
2026-02-20 06:43 48.59583 21.19184 39072 ft 502 kts 142°
2026-02-20 06:44 48.54438 21.26302 39072 ft 502 kts 142°
2026-02-20 06:44 48.49277 21.33394 39071 ft 501 kts 142°
2026-02-20 06:45 48.41451 21.43853 39072 ft 501 kts 143°
2026-02-20 06:46 48.36233 21.50795 39064 ft 501 kts 143°
2026-02-20 06:46 48.31024 21.57728 39063 ft 500 kts 143°
2026-02-20 06:47 48.25836 21.64626 39055 ft 500 kts 143°
2026-02-20 06:47 48.20620 21.71540 39046 ft 500 kts 143°
2026-02-20 06:48 48.15405 21.78434 39050 ft 500 kts 143°
2026-02-20 06:48 48.10199 21.85297 39045 ft 500 kts 143°
2026-02-20 06:49 48.04959 21.92182 39045 ft 500 kts 143°
2026-02-20 06:49 47.99733 21.99029 39045 ft 500 kts 144°
2026-02-20 06:50 47.94509 22.05855 39038 ft 500 kts 144°
2026-02-20 06:50 47.89273 22.12679 39028 ft 499 kts 144°
2026-02-20 06:51 47.84038 22.19484 39010 ft 499 kts 144°
2026-02-20 06:51 47.78800 22.26271 39010 ft 499 kts 144°
2026-02-20 06:52 47.73550 22.33056 39004 ft 499 kts 144°
2026-02-20 06:52 47.68341 22.39771 39004 ft 499 kts 144°
2026-02-20 06:53 47.63102 22.46503 38996 ft 499 kts 144°
2026-02-20 06:53 47.57845 22.53239 38990 ft 499 kts 144°
2026-02-20 06:54 47.52594 22.59954 38988 ft 498 kts 144°
2026-02-20 06:54 47.47411 22.66355 38988 ft 497 kts 146°
2026-02-20 06:55 47.42082 22.72751 38988 ft 496 kts 146°
2026-02-20 06:55 47.36725 22.79186 38981 ft 497 kts 146°
2026-02-20 06:56 47.31375 22.85634 38978 ft 497 kts 146°
2026-02-20 06:56 47.26028 22.92077 38982 ft 496 kts 146°
2026-02-20 06:57 47.20691 22.98494 38981 ft 496 kts 146°
2026-02-20 06:57 47.15347 23.04899 38980 ft 496 kts 146°
2026-02-20 06:58 47.09990 23.11301 38988 ft 496 kts 146°
2026-02-20 06:58 47.04626 23.17693 38989 ft 496 kts 147°
2026-02-20 06:59 46.99274 23.24055 38984 ft 496 kts 147°
2026-02-20 06:59 46.93914 23.30410 38988 ft 495 kts 147°
2026-02-20 07:00 46.88599 23.36693 38987 ft 495 kts 147°
2026-02-20 07:00 46.83233 23.43019 38989 ft 495 kts 147°
2026-02-20 07:01 46.77875 23.49322 39142 ft 494 kts 147°
2026-02-20 07:01 46.75200 23.52462 39275 ft 494 kts 147°
2026-02-20 07:01 46.72524 23.55598 39515 ft 492 kts 147°
2026-02-20 07:01 46.69855 23.58722 39760 ft 491 kts 147°
2026-02-20 07:02 46.67198 23.61830 40005 ft 489 kts 147°
2026-02-20 07:02 46.64546 23.64930 40206 ft 488 kts 147°
2026-02-20 07:02 46.61898 23.68019 40319 ft 489 kts 147°
2026-02-20 07:02 46.59240 23.71113 40455 ft 490 kts 147°
2026-02-20 07:03 46.56579 23.74207 40578 ft 490 kts 147°
2026-02-20 07:03 46.53910 23.77306 40709 ft 491 kts 147°
2026-02-20 07:03 46.51238 23.80406 40829 ft 491 kts 147°
2026-02-20 07:03 46.48562 23.83505 40942 ft 492 kts 147°
2026-02-20 07:04 46.45882 23.86605 40964 ft 495 kts 147°
2026-02-20 07:04 46.40466 23.92857 40962 ft 499 kts 147°
2026-02-20 07:05 46.35063 23.99086 40961 ft 499 kts 147°
2026-02-20 07:05 46.29621 24.05342 40964 ft 499 kts 147°
2026-02-20 07:06 46.24176 24.11580 40962 ft 499 kts 147°
2026-02-20 07:06 46.18729 24.17804 40965 ft 499 kts 147°
2026-02-20 07:07 46.13321 24.23968 40966 ft 498 kts 147°
2026-02-20 07:07 46.07876 24.30161 40951 ft 498 kts 147°
2026-02-20 07:08 46.02428 24.36336 40951 ft 499 kts 147°
2026-02-20 07:08 45.96972 24.42500 40953 ft 499 kts 148°
2026-02-20 07:09 45.91513 24.48661 40952 ft 498 kts 148°
2026-02-20 07:09 45.86058 24.54804 40953 ft 498 kts 148°
2026-02-20 07:10 45.80604 24.60927 40974 ft 498 kts 148°
2026-02-20 07:10 45.75144 24.67041 40979 ft 498 kts 148°
2026-02-20 07:11 45.69685 24.73136 40981 ft 498 kts 148°
2026-02-20 07:11 45.64257 24.79178 40978 ft 498 kts 148°
2026-02-20 07:12 45.58779 24.85262 40982 ft 498 kts 148°
2026-02-20 07:12 45.53310 24.91329 40979 ft 498 kts 148°
2026-02-20 07:13 45.47830 24.97387 40987 ft 498 kts 148°
2026-02-20 07:13 45.42356 25.03422 40990 ft 498 kts 149°
2026-02-20 07:14 45.36880 25.09445 40991 ft 498 kts 149°
2026-02-20 07:14 45.31390 25.15466 40990 ft 498 kts 149°
2026-02-20 07:15 45.25901 25.21473 40990 ft 498 kts 149°
2026-02-20 07:15 45.20403 25.27476 40988 ft 498 kts 149°
2026-02-20 07:16 45.14907 25.33459 40992 ft 498 kts 149°
2026-02-20 07:16 45.09402 25.39437 40993 ft 498 kts 149°
2026-02-20 07:17 45.03900 25.45399 40996 ft 498 kts 149°
2026-02-20 07:17 44.98429 25.51311 40996 ft 498 kts 149°
2026-02-20 07:18 44.92912 25.57259 41007 ft 498 kts 149°
2026-02-20 07:18 44.87400 25.63188 41014 ft 498 kts 149°
2026-02-20 07:19 44.81885 25.69105 41012 ft 498 kts 149°
2026-02-20 07:19 44.76373 25.75002 41012 ft 498 kts 149°
2026-02-20 07:20 44.70856 25.80892 41017 ft 498 kts 149°
2026-02-20 07:20 44.65366 25.86738 41013 ft 497 kts 150°
2026-02-20 07:21 44.59815 25.92634 41013 ft 498 kts 150°
2026-02-20 07:21 44.54319 25.98459 41030 ft 498 kts 150°
2026-02-20 07:22 44.48793 26.04301 41014 ft 499 kts 150°
2026-02-20 07:22 44.43245 26.10150 41019 ft 499 kts 150°
2026-02-20 07:23 44.37697 26.15987 41017 ft 499 kts 150°
2026-02-20 07:23 44.32143 26.21815 41011 ft 499 kts 150°
2026-02-20 07:24 44.26588 26.27632 41019 ft 499 kts 150°
2026-02-20 07:24 44.21183 26.33278 41020 ft 498 kts 150°
2026-02-20 07:25 44.15653 26.39037 41020 ft 499 kts 150°
2026-02-20 07:25 44.10099 26.44809 41018 ft 499 kts 150°
2026-02-20 07:26 44.04531 26.50583 41014 ft 498 kts 150°
2026-02-20 07:26 43.98823 26.55966 41021 ft 494 kts 155°
2026-02-20 07:27 43.93012 26.61028 41017 ft 493 kts 155°
2026-02-20 07:27 43.87204 26.66117 41010 ft 494 kts 154°
2026-02-20 07:28 43.81413 26.71276 41007 ft 494 kts 154°
2026-02-20 07:28 43.76612 26.75577 41007 ft 494 kts 154°
2026-02-20 07:29 43.69903 26.81573 41018 ft 494 kts 154°
2026-02-20 07:29 43.64112 26.86730 41030 ft 495 kts 154°
2026-02-20 07:30 43.58324 26.91871 41012 ft 495 kts 154°
2026-02-20 07:30 43.52537 26.96999 41012 ft 495 kts 154°
2026-02-20 07:31 43.47715 27.01264 41029 ft 495 kts 154°
2026-02-20 07:31 43.41924 27.06374 41016 ft 495 kts 154°
2026-02-20 07:32 43.36136 27.11468 41014 ft 495 kts 154°
2026-02-20 07:32 43.30324 27.16572 41016 ft 495 kts 154°
2026-02-20 07:33 43.24677 27.21521 41028 ft 495 kts 154°
2026-02-20 07:33 43.18887 27.26583 40969 ft 495 kts 154°
2026-02-20 07:33 43.16860 27.28353 40799 ft 494 kts 154°
2026-02-20 07:34 43.15916 27.29178 40718 ft 494 kts 154°
2026-02-20 07:34 43.13980 27.30867 40556 ft 493 kts 155°
2026-02-20 07:34 43.11081 27.33394 40305 ft 492 kts 155°
2026-02-20 07:34 43.08189 27.35911 40044 ft 491 kts 155°
2026-02-20 07:35 43.05352 27.38376 39811 ft 490 kts 155°
2026-02-20 07:35 43.02485 27.40867 39447 ft 486 kts 155°
2026-02-20 07:35 42.99689 27.43459 38907 ft 490 kts 150°
2026-02-20 07:35 42.97163 27.46661 38304 ft 498 kts 142°
2026-02-20 07:36 42.94781 27.50109 37655 ft 500 kts 140°
2026-02-20 07:36 42.92424 27.53603 36996 ft 500 kts 140°
2026-02-20 07:36 42.90069 27.57108 36339 ft 500 kts 140°
2026-02-20 07:36 42.87727 27.60595 35719 ft 498 kts 140°
2026-02-20 07:37 42.85396 27.64070 35195 ft 493 kts 140°
2026-02-20 07:37 42.83089 27.67502 34685 ft 490 kts 140°
2026-02-20 07:37 42.80799 27.70904 34167 ft 486 kts 140°
2026-02-20 07:37 42.78525 27.74274 33647 ft 482 kts 140°
2026-02-20 07:38 42.76260 27.77631 33138 ft 479 kts 140°
2026-02-20 07:38 42.74018 27.80955 32637 ft 475 kts 140°
2026-02-20 07:38 42.71790 27.84249 32139 ft 471 kts 140°
2026-02-20 07:38 42.69580 27.87517 31624 ft 468 kts 140°
2026-02-20 07:39 42.67385 27.90760 31133 ft 465 kts 140°
2026-02-20 07:39 42.65199 27.93978 30640 ft 461 kts 140°
2026-02-20 07:39 42.63056 27.97132 30158 ft 458 kts 140°
2026-02-20 07:39 42.60878 28.00331 29675 ft 454 kts 140°
2026-02-20 07:40 42.58773 28.03422 29199 ft 451 kts 140°
2026-02-20 07:40 42.56648 28.06535 28720 ft 447 kts 140°
2026-02-20 07:40 42.54545 28.09614 28239 ft 444 kts 139°
2026-02-20 07:40 42.52444 28.12684 27759 ft 441 kts 139°
2026-02-20 07:41 42.50365 28.15721 27290 ft 438 kts 139°
2026-02-20 07:41 42.48305 28.18729 26817 ft 435 kts 139°
2026-02-20 07:41 42.46251 28.21721 26347 ft 432 kts 139°
2026-02-20 07:41 42.44218 28.24680 25870 ft 429 kts 139°
2026-02-20 07:42 42.42191 28.27626 25392 ft 426 kts 139°
2026-02-20 07:42 42.40180 28.30548 24919 ft 423 kts 139°
2026-02-20 07:42 42.38187 28.33445 24451 ft 419 kts 139°
2026-02-20 07:42 42.36203 28.36324 23973 ft 416 kts 139°
2026-02-20 07:43 42.34239 28.39170 23495 ft 413 kts 139°
2026-02-20 07:43 42.32280 28.42005 23035 ft 410 kts 138°
2026-02-20 07:43 42.28412 28.47598 22084 ft 403 kts 139°
2026-02-20 07:44 42.26506 28.50349 21632 ft 400 kts 139°
2026-02-20 07:44 42.24615 28.53076 21141 ft 397 kts 139°
2026-02-20 07:44 42.22734 28.55786 20690 ft 393 kts 139°
2026-02-20 07:44 42.20890 28.58440 20234 ft 390 kts 139°
2026-02-20 07:45 42.19044 28.61095 19908 ft 383 kts 139°
2026-02-20 07:45 42.17248 28.63680 19748 ft 371 kts 139°
2026-02-20 07:45 42.15514 28.66177 19632 ft 360 kts 139°
2026-02-20 07:45 42.13829 28.68598 19444 ft 350 kts 139°
2026-02-20 07:46 42.12161 28.70986 19025 ft 349 kts 139°
2026-02-20 07:46 42.10394 28.73155 18600 ft 338 kts 151°
2026-02-20 07:46 42.08319 28.74371 18377 ft 317 kts 173°
2026-02-20 07:46 42.06171 28.74463 18186 ft 305 kts 193°
2026-02-20 07:47 42.04202 28.73560 17986 ft 296 kts 212°
2026-02-20 07:47 42.02620 28.71851 17797 ft 291 kts 229°
2026-02-20 07:47 42.01562 28.69566 17599 ft 289 kts 246°
2026-02-20 07:47 42.00977 28.66988 17400 ft 288 kts 252°
2026-02-20 07:48 42.00257 28.64487 17196 ft 287 kts 242°
2026-02-20 07:48 41.99110 28.62291 17011 ft 287 kts 233°
2026-02-20 07:48 41.97830 28.60240 16814 ft 286 kts 231°
2026-02-20 07:48 41.96535 28.58223 16616 ft 285 kts 231°
2026-02-20 07:49 41.95242 28.56213 16423 ft 284 kts 231°
2026-02-20 07:49 41.93951 28.54205 16220 ft 284 kts 231°
2026-02-20 07:49 41.92699 28.52165 16030 ft 282 kts 233°
2026-02-20 07:49 41.91795 28.49833 15843 ft 283 kts 250°
2026-02-20 07:50 41.91403 28.47226 15654 ft 284 kts 259°
2026-02-20 07:50 41.91175 28.44593 15456 ft 284 kts 261°
2026-02-20 07:50 41.90964 28.41998 15263 ft 283 kts 261°
2026-02-20 07:50 41.90743 28.39378 15072 ft 282 kts 260°
2026-02-20 07:51 41.90512 28.36741 14863 ft 281 kts 260°
2026-02-20 07:51 41.90282 28.34181 14689 ft 279 kts 260°
2026-02-20 07:51 41.90044 28.31564 14487 ft 279 kts 260°
2026-02-20 07:51 41.89809 28.28983 14305 ft 279 kts 260°
2026-02-20 07:52 41.89574 28.26433 14117 ft 278 kts 260°
2026-02-20 07:52 41.89337 28.23862 13927 ft 277 kts 259°
2026-02-20 07:52 41.89029 28.21315 13736 ft 275 kts 255°
2026-02-20 07:52 41.88278 28.18977 13555 ft 275 kts 239°
2026-02-20 07:53 41.87195 28.16863 13373 ft 273 kts 234°
2026-02-20 07:53 41.86065 28.14826 13182 ft 272 kts 234°
2026-02-20 07:53 41.84939 28.12799 12996 ft 271 kts 234°
2026-02-20 07:53 41.83818 28.10767 12812 ft 271 kts 234°
2026-02-20 07:54 41.82705 28.08734 12629 ft 270 kts 234°
2026-02-20 07:54 41.81597 28.06704 12442 ft 269 kts 234°
2026-02-20 07:54 41.80495 28.04681 12266 ft 269 kts 234°
2026-02-20 07:54 41.79392 28.02666 12073 ft 268 kts 234°
2026-02-20 07:55 41.78293 28.00668 11895 ft 268 kts 233°
2026-02-20 07:55 41.77037 27.98836 11610 ft 268 kts 221°
2026-02-20 07:55 41.75387 27.97660 11402 ft 273 kts 201°
2026-02-20 07:55 41.73487 27.97416 11217 ft 280 kts 181°
2026-02-20 07:56 41.71577 27.97967 11032 ft 283 kts 170°
2026-02-20 07:56 41.69690 27.98729 10840 ft 282 kts 168°
2026-02-20 07:56 41.67811 27.99490 10640 ft 281 kts 169°
2026-02-20 07:56 41.65957 28.00219 10461 ft 280 kts 169°
2026-02-20 07:57 41.64086 28.00941 10313 ft 272 kts 170°
2026-02-20 07:57 41.62298 28.01621 10129 ft 264 kts 170°
2026-02-20 07:57 41.60533 28.02069 9912 ft 252 kts 179°
2026-02-20 07:57 41.58833 28.02144 9882 ft 248 kts 184°
2026-02-20 07:58 41.57106 28.02150 9859 ft 248 kts 184°
2026-02-20 07:58 41.55430 28.02254 9649 ft 252 kts 178°
2026-02-20 07:58 41.53757 28.03037 9344 ft 262 kts 155°
2026-02-20 07:58 41.52447 28.04773 9085 ft 273 kts 129°
2026-02-20 07:59 41.51807 28.07197 8835 ft 283 kts 102°
2026-02-20 07:59 41.52032 28.09816 8592 ft 290 kts 74°
2026-02-20 07:59 41.52837 28.12279 8364 ft 287 kts 70°
2026-02-20 07:59 41.53328 28.14849 8126 ft 284 kts 82°
2026-02-20 08:00 41.53637 28.17436 7888 ft 281 kts 84°
2026-02-20 08:00 41.53906 28.20013 7636 ft 280 kts 85°
2026-02-20 08:00 41.54165 28.22578 7381 ft 279 kts 85°
2026-02-20 08:00 41.54421 28.25143 7126 ft 278 kts 85°
2026-02-20 08:01 41.54672 28.27666 6884 ft 277 kts 85°
2026-02-20 08:01 41.54924 28.30207 6630 ft 276 kts 85°
2026-02-20 08:01 41.55173 28.32734 6382 ft 275 kts 86°
2026-02-20 08:01 41.55422 28.35255 6134 ft 273 kts 85°
2026-02-20 08:02 41.55668 28.37756 5886 ft 271 kts 86°
2026-02-20 08:02 41.55913 28.40260 5635 ft 270 kts 86°
2026-02-20 08:02 41.56156 28.42738 5383 ft 268 kts 86°
2026-02-20 08:02 41.56395 28.45183 5161 ft 263 kts 85°
2026-02-20 08:03 41.56796 28.47529 5009 ft 257 kts 72°
2026-02-20 08:03 41.57876 28.49445 5003 ft 263 kts 42°
2026-02-20 08:03 41.59376 28.50782 5008 ft 262 kts 31°
2026-02-20 08:03 41.60943 28.51987 5000 ft 259 kts 29°
2026-02-20 08:04 41.62502 28.53188 5000 ft 259 kts 29°
2026-02-20 08:04 41.64005 28.54570 4975 ft 260 kts 41°
2026-02-20 08:04 41.64942 28.56577 4994 ft 260 kts 74°
2026-02-20 08:04 41.65025 28.58956 5010 ft 251 kts 102°
2026-02-20 08:05 41.64642 28.61177 5005 ft 246 kts 109°
2026-02-20 08:05 41.64215 28.63386 4998 ft 245 kts 109°
2026-02-20 08:05 41.63812 28.65595 4998 ft 245 kts 109°
2026-02-20 08:05 41.63364 28.67737 4982 ft 233 kts 115°
2026-02-20 08:06 41.62470 28.69436 4984 ft 214 kts 143°
2026-02-20 08:06 41.61286 28.70491 4998 ft 199 kts 154°
2026-02-20 08:06 41.60094 28.71386 4995 ft 194 kts 156°
2026-02-20 08:06 41.58857 28.72071 4996 ft 191 kts 168°
2026-02-20 08:07 41.57565 28.72299 4994 ft 182 kts 181°
2026-02-20 08:07 41.56362 28.72304 5021 ft 165 kts 185°
2026-02-20 08:07 41.55235 28.72252 5006 ft 165 kts 186°
2026-02-20 08:07 41.54090 28.72238 4941 ft 159 kts 185°
2026-02-20 08:08 41.53014 28.72253 4773 ft 155 kts 184°
2026-02-20 08:08 41.51941 28.72274 4557 ft 154 kts 184°
2026-02-20 08:08 41.50870 28.72294 4318 ft 154 kts 184°
2026-02-20 08:08 41.49804 28.72313 4095 ft 153 kts 183°
2026-02-20 08:09 41.48741 28.72334 3885 ft 153 kts 183°
2026-02-20 08:09 41.47677 28.72356 3674 ft 152 kts 183°
2026-02-20 08:09 41.46620 28.72374 3468 ft 152 kts 182°
2026-02-20 08:09 41.45563 28.72396 3263 ft 151 kts 182°
2026-02-20 08:10 41.44506 28.72417 3062 ft 152 kts 181°
2026-02-20 08:10 41.43455 28.72438 2866 ft 151 kts 181°
2026-02-20 08:10 41.42400 28.72458 2672 ft 151 kts 181°
2026-02-20 08:10 41.41356 28.72480 2474 ft 149 kts 181°
2026-02-20 08:11 41.40328 28.72501 2269 ft 147 kts 180°
2026-02-20 08:11 41.39326 28.72523 2075 ft 147 kts 180°
2026-02-20 08:11 41.38288 28.72542 1873 ft 147 kts 180°
2026-02-20 08:11 41.37260 28.72561 1678 ft 146 kts 180°
2026-02-20 08:12 41.36288 28.72580 1469 ft 133 kts 180°
2026-02-20 08:12 41.35405 28.72596 1314 ft 122 kts 180°
2026-02-20 08:12 41.34561 28.72614 1161 ft 121 kts 180°
2026-02-20 08:12 41.33724 28.72632 1007 ft 122 kts 179°
2026-02-20 08:13 41.32877 28.72647 835 ft 122 kts 181°
2026-02-20 08:13 41.32028 28.72654 688 ft 122 kts 180°
2026-02-20 08:13 41.31178 28.72673 593 ft 124 kts 179°
2026-02-20 08:13 41.30294 28.72693 415 ft 127 kts 180°
2026-02-20 08:14 41.29417 28.72707 354 ft 124 kts 180°
2026-02-20 08:14 41.28674 28.72722 336 ft 85 kts 179°
2026-02-20 08:14 41.28239 28.72732 338 ft 40 kts 179°
2026-02-20 08:14 41.28027 28.72737 340 ft 29 kts 179°
2026-02-20 08:15 41.27851 28.72782 335 ft 21 kts 156°
2026-02-20 08:15 41.27772 28.72833 336 ft 13 kts 151°
2026-02-20 08:15 41.27693 28.72896 340 ft 10 kts 149°
2026-02-20 08:15 41.27628 28.72948 335 ft 12 kts 150°
2026-02-20 08:16 41.27541 28.72972 336 ft 14 kts 178°
2026-02-20 08:16 41.27439 28.72975 339 ft 16 kts 179°
2026-02-20 08:16 41.27323 28.72978 336 ft 18 kts 179°
2026-02-20 08:16 41.27220 28.72981 336 ft 8 kts 179°
2026-02-20 08:17 41.27155 28.72982 335 ft 11 kts 179°
2026-02-20 08:17 41.27073 28.72984 336 ft 13 kts 179°
2026-02-20 08:17 41.26976 28.72993 336 ft 15 kts 166°
2026-02-20 08:17 41.26950 28.73018 340 ft 1 kts 126°
2026-02-20 08:18 41.26947 28.73035 335 ft 3 kts 98°
2026-02-20 08:18 41.26951 28.73093 336 ft 10 kts 85°
2026-02-20 08:18 41.26955 28.73199 338 ft 13 kts 88°
2026-02-20 08:18 41.26945 28.73296 340 ft 5 kts 123°
2026-02-20 08:19 41.26913 28.73319 336 ft 6 kts 162°
2026-02-20 08:19 41.26880 28.73340 340 ft 4 kts 131°
2026-02-20 08:19 41.26872 28.73378 340 ft 5 kts 95°
2026-02-20 08:19 41.26862 28.73427 340 ft 5 kts 125°
2026-02-20 08:20 41.26841 28.73438 335 ft 3 kts 175°
2026-02-20 08:20 41.26813 28.73440 336 ft 3 kts 177°
2026-02-20 08:20 41.26791 28.73441 335 ft 1 kts 178°
2026-02-20 08:20 41.26787 28.73441 340 ft 0 kts 178°